Location: Marcé
(47.5801°N, 0.3280°W)
Time: 02:10:19
(UTC+02:00)

RAPIDEYE 2 - Pass Details

Date: 07 July 2022
Orbit: 570 x 584 km, 97.6° (Epoch: 14 August)

Event Time Altitude Azimuth Distance (km) Brightness Sun altitude
Exits shadow 23:13:37 - 182° (S) 2,202 ? -9.9°
Reaches altitude 10° 23:14:27 10° 185° (S) 1,868 ? -10.0°
Maximum altitude 23:18:22 49° 260° (W) 743 ? -10.4°
Drops below altitude 10° 23:22:20 10° 337° (NNW) 1,886 ? -10.8°
Sets 23:24:34 0° 343° (NNW) 2,791 ? -11.0°
